Regional Weather Roundup
Issued by NWS

Home | Current Version | Previous Version | Graphics & Text | Print | Product List | Glossary On
Versions: 1 2 3 4 5 6 7 8 9 10 11 12 13 14 15 16 17 18 19 20 21 22 23 24 25 26 27 28 29 30 31 32 33 34 35 36 37 38 39 40 41 42 43 44 45 46 47 48 49 50
000
ASUS43 KFSD 250502
RWRSD

WEATHER ROUNDUP FOR SOUTH DAKOTA
NATIONAL WEATHER SERVICE SIOUX FALLS SD
1200 AM CDT FRI JUL 25 2014

NOTE: "FAIR" INDICATES FEW OR NO CLOUDS BELOW 12,000 FEET WITH NO
SIGNIFICANT WEATHER AND/OR OBSTRUCTIONS TO VISIBILITY.


SDZ001>005-009-010-012>017-250600-
NORTHWEST AND NORTH CENTRAL SOUTH DAKOTA

CITY           SKY/WX    TMP DP  RH WIND       PRES   REMARKS
BUFFALO          N/A     67  61  81 NW30G38   29.74R
FAITH            N/A     74  60  61 E14       29.69R
MOBRIDGE       CLOUDY    73  65  75 E15G25    29.60F
$$

SDZ012>016-024>037-041>051-057-063-072>074-250600-
SOUTHWEST AND SOUTH CENTRAL SOUTH DAKOTA

CITY           SKY/WX    TMP DP  RH WIND       PRES   REMARKS
RAPID CTY ARPT CLEAR     74  61  63 NW20      29.74R
PIERRE         CLOUDY    82  59  45 NW17G28   29.67R
CUSTER         CLEAR     66  48  52 N6        29.94R
ELLSWORTH AFB  CLEAR     74  63  68 NW17      29.75R
PHILIP         CLEAR     83  56  39 NW14G22   29.68R
PINE RIDGE     CLEAR     79  56  45 S20G28    29.77R
WINNER         FAIR      81  60  48 S16       29.67S
$$

SDZ004>011-016>023-039-040-250600-
NORTHEAST SOUTH DAKOTA

CITY           SKY/WX    TMP DP  RH WIND       PRES   REMARKS
ABERDEEN       CLOUDY    68  63  84 SE8       29.71F
WATERTOWN      MOCLDY    66  61  84 SE16      29.78F
SISSETON         N/A     66  62  87 S13G18    29.76F
$$

SDZ017-020-022-023-036>040-048>070-250600-
SOUTHEAST SOUTH DAKOTA

CITY           SKY/WX    TMP DP  RH WIND       PRES   REMARKS
SIOUX FALLS    MOCLDY    70  62  76 SE8       29.80F
HURON          PTCLDY    71  62  73 SE15G22   29.69F
CHAMBERLAIN    MOCLDY    76  69  78 S6        29.66R
MITCHELL       MOCLDY    73  64  73 SE13      29.72S
YANKTON        CLOUDY    73  63  68 S20G26    29.73F
$$

ABBREVIATIONS USED IN REMARKS
   TC - TEMPERATURE IN CELSIUS
  WCI - WIND CHILL INDEX
   HX - HEAT INDEX
  VSB - VISIBILITY




USA.gov is the U.S. government's official web portal to all federal, state and local government web resources and services.